FW0502 Weather Reports


Display with metric or nautical units.
time (UTC)temp
F
wind
direction
speed
MPH
gust
MPH
rain 1hr
in
rain 24hr
in
rain mn
in
humidity
%
barometer
mb
20260503023038 56 0.0 0.0 0.00 0.00 0.00 46 1011.8
20260503021538 62 0.0 0.0 0.00 0.00 0.00 40 1011.9
20260503020035 65 0.0 1.0 0.00 0.00 0.00 38 1011.9
20260503014535 66 2.0 4.0 0.00 0.00 0.00 34 1012.0
20260503013036 67 2.0 5.0 0.00 0.00 0.00 35 1012.1
20260503011531 68 3.0 6.0 0.00 0.00 0.00 33 1012.2
20260503010029 68 3.0 7.0 0.00 0.00 0.00 32 1012.3
20260503004528 69 3.0 6.0 0.00 0.00 0.00 33 1012.5
20260503003026 69 2.0 6.0 0.00 0.00 0.00 31 1012.6
20260503001524 69 4.0 7.0 0.00 0.00 0.00 33 1012.7
20260503000022 68 4.0 8.0 0.00 0.00 0.00 33 1012.8
20260502234521 68 5.0 8.0 0.00 0.00 0.00 34 1012.9
20260502233019 66 4.0 8.0 0.00 0.00 0.00 37 1013.0
20260502231520 67 5.0 9.0 0.00 0.00 0.00 35 1013.3
20260502230015 69 5.0 8.0 0.00 0.00 0.00 31 1013.4
20260502224513 68 3.0 9.0 0.00 0.00 0.00 33 1013.7
20260502223013 66 1.0 6.0 0.00 0.00 0.00 31 1013.7
20260502221509 68 1.0 3.0 0.00 0.00 0.00 30 1013.9
20260502220007 66 4.0 8.0 0.00 0.00 0.00 30 1014.3
20260502214504 66 3.0 10.0 0.00 0.00 0.00 32 1014.4
20260502213003 68 3.0 10.0 0.00 0.00 0.00 33 1014.5
20260502211602 66 0.0 9.0 0.00 0.00 0.00 35 1014.6
20260502210059 67 4.0 9.0 0.00 0.00 0.00 34 1014.8
20260502204556 66 4.0 9.0 0.00 0.00 0.00 34 1015.0
20260502203054 64 4.0 10.0 0.00 0.00 0.00 37 1015.3
20260502201554 64 2.0 6.0 0.00 0.00 0.00 36 1015.4
20260502200052 65 5.0 11.0 0.00 0.00 0.00 37 1015.7
20260502194553 64 1.0 5.0 0.00 0.00 0.00 38 1016.0
20260502193059 65 1.0 7.0 0.00 0.00 0.00 38 1016.3
20260502191549 63 3.0 6.0 0.00 0.00 0.00 37 1016.6
20260502190041 63 3.0 6.0 0.00 0.00 0.00 40 1016.9
20260502184542 61 1.0 4.0 0.00 0.00 0.00 39 1017.1
20260502183039 61 3.0 7.0 0.00 0.00 0.00 39 1017.1
20260502181533 60 0.0 3.0 0.00 0.00 0.00 44 1017.3
20260502163033 54 1.0 4.0 0.00 0.00 0.00 55 1018.3
20260502161518 54 2.0 5.0 0.00 0.00 0.00 54 1018.3
20260502151509 52 1.0 7.0 0.00 0.00 0.00 55 1018.6
20260502130126 45 1.0 3.0 0.00 0.00 0.00 76 1018.2
20260502123125 44 5.0 7.0 0.00 0.00 0.00 77 1017.8
20260502121559 45 5.0 8.0 0.00 0.00 0.00 74 1017.8
20260502120122 46 5.0 7.0 0.00 0.00 0.00 71 1017.7
20260502114557 47 5.0 7.0 0.00 0.00 0.00 69 1017.8
20260502113054 47 5.0 7.0 0.00 0.00 0.00 69 1017.8
20260502111554 47 5.0 7.0 0.00 0.00 0.00 69 1017.8
20260502110052 46 4.0 7.0 0.00 0.00 0.00 70 1017.7
20260502104550 46 5.0 7.0 0.00 0.00 0.00 70 1017.8
20260502103050 46 4.0 7.0 0.00 0.00 0.00 70 1017.7
20260502101555 47 5.0 7.0 0.00 0.00 0.00 70 1017.8
20260502071529 49 3.0 6.0 0.00 0.00 0.00 64 1017.1
20260502070025 49 5.0 8.0 0.00 0.00 0.00 63 1017.0
20260502064519 50 7.0 11.0 0.00 0.00 0.00 60 1016.7
20260502063016 51 8.0 12.0 0.00 0.00 0.00 59 1016.4
20260502061514 51 10.0 14.0 0.00 0.00 0.00 59 1016.2
20260502060010 50 10.0 13.0 0.00 0.00 0.00 59 1016.3
20260502054520 51 11.0 15.0 0.00 0.00 0.00 59 1016.1
20260502053008 51 11.0 17.0 0.00 0.00 0.00 56 1016.0
20260502051508 52 13.0 20.0 0.00 0.00 0.00 54 1015.8
20260502050025 54 16.0 23.0 0.00 0.00 0.00 50 1015.5
20260502044505 54 14.0 21.0 0.00 0.00 0.00 49 1015.4
20260502043005 54 11.0 16.0 0.00 0.00 0.00 50 1015.2
20260502041503 56 11.0 16.0 0.00 0.00 0.00 48 1014.9
20260502040002 56 10.0 14.0 0.00 0.00 0.00 48 1014.5
20260502034505 56 10.0 19.0 0.00 0.00 0.00 46 1014.2
20260502033004 56 13.0 17.0 0.00 0.00 0.00 45 1013.7
20260502031600 57 12.0 18.0 0.00 0.00 0.00 44 1013.4
20260502030101 58 11.0 16.0 0.00 0.00 0.00 41 1013.2
20260502024612 59 11.0 15.0 0.00 0.00 0.00 37 1012.8